Showing default

QIANFAN-182, 69399

Orbit data source: Space-Track

QIANFAN-182, 69399 is a Chinese payload satellite in LEO that was launched on Thu, 04 Jun 2026 UTC via a CHANG ZHENG 6A launch vehicle from the Taiyaun Space Center, China (TSC). Payload-class satellites include a variety of spacecraft equipped with specific instruments for various scientific and technological missions. These include communications satellites like Starlink; space stations such as the ISS; scientific satellites like the Hubble; Earth observation satellites from companies like Planet Labs, Umbra, and HawkEye 360; GPS; miniature CubeSats for education and research; and military/defense satellites.

Loading next visibility...
Identifier
69399, 2026-124T
Orbit
LEO
Country
Flag of CNCN / PRC
Related business
Manufacturer
GESIH
Mission
Operational spacecraft
Bus & Motor
QIANFAN, Unknown motor
Mass
267 kg wet, ~267 kg dry
Launch date (UTC)
2026-06-04 (2 weeks ago)
Launch vehicle
CHANG ZHENG 6A
Launch site
Taiyaun Space Center, China (TSC)
Object type
Payload
Rocket body
Debris
Shape & HBR
Unknown
Radar Cross Section
Large (>1 m²)

Expand to show TLE details & history
Last TLE update: 10 hours ago

TLE from 10 hours ago
0 QIANFAN-182
1 69399U 26124T   26171.41939479  .00000083  00000-0  33241-4 0  9992
2 69399  88.9984   1.6701 0002631 133.1406 227.0003 14.18738574  2272
Epoch: 2026-06-20T10:03Z
TLE epoch observation values (Epoch: 2026-06-20T10:03:55.709Z)
Latitude
-0.00012°
Longitude
-57.94631°
Altitude
833.967 km
Speed
7.435 km/s
True Right ascension
00h 06m 40s
True Declination
0° 00' 00"
Sunlit
Object was in daylight at epoch
Visualization orbit readout
Latitude
Unknown
Longitude
Unknown
Altitude
Unknown
Speed
Unknown
Apparent Right ascension
Unknown
Apparent Declination
Unknown
Sunlit
N/A
Visualization observer readout
Local Sidereal Time
07:17:21
Azimuth
Unknown
Elevation
Unknown
Doppler factor
Unknown
Orbital elements
Apogee altitude
828.471 km
Perigee altitude
824.679 km
Semi-major axis
7,204.712 km
Eccentricity
0.00026
Inclination
88.9984°
RAAN
1.6701°
Arg. of periapsis
133.1406°
True anomaly
226.97826°
Mean anomaly
227.0003°
Eccentric anomaly
226.98928°
Mean motion
3.5491 °/min
Orbital period
101.43 mins
BSTAR
0.000033241
Loading maneuver chart data...
Computing Atmospheric mass density...
Loading historical data...
Loading historical data...
Loading historical data...
Loading historical data...
Loading historical data...
Loading historical data...
Loading historical data...

Documentation

Showing up to 5 results
|